Starlink 11365

operational
NORAD ID: 62886 Int'l Des: 2025-024 Owner: SPXS Country: US Constellation: starlink
LEOCIRCULAR

About Starlink 11365

Description loading...

Live Position

Loading 3D Globe...

Upcoming Passes

Altitude History

Altitude vs Time

uPlot chart will show altitude changes over time

Two-Line Element Set

1 62886U 25024H 25304.25758090 .00264657 00000-0 19994-2 0 9997
2 62886 42.9985 241.3296 0001956 252.6119 107.4535 15.70859134 43110
Epoch: Oct 31, 2025 • Age: 34 hours

Current Status

Altitude 356.1 km
Velocity 7.70 km/s
Sub-Earth Point 32.03°N, 85.31°E
Launch Date Feb 4, 2025
Age 0.7 years
Type internet

Technical Details

Classification Payload
Mass 960.00 kg
Dry Mass 910.00 kg
Total Mass 960.00 kg
Length 0.30 m
Diameter 4.10 m
Span 29.00 m
Shape Box + pan
Manufacturer SPXS
Bus Type Starlink V2MD
Phase Status In Orbit
Owner/State SPXS/US

Large Constellations

Loading constellations...